Terminal Aerodrome Forecast
Issued by NWS Charleston, WV

Current Version | Previous Version | Text Only | Print | Product List | Glossary Off
Versions: 1 2 3 4 5 6 7 8 9 10 11 12 13 14 15 16 17 18 19 20 21 22 23

000
FTUS41 KRLX 230800 AAA
TAFBKW
TAF AMD
KBKW 230859Z 2309/2406 13008KT P6SM OVC100
     FM231300 15011G18KT P6SM BKN080
     FM231800 15009G14KT 5SM -SN OVC025
     FM232000 10009KT 3SM -RAPL BR OVC020
     FM240000 13009KT 1 1/2SM -RAPL BR OVC012
     FM240500 12005KT 1SM -SN OVC008=

USA.gov is the U.S. government's official web portal to all federal, state and local government web resources and services.